Milwaukee Timmerman, WI

6:24 PM CDT on September 22, 2017 (GMT -0500)
Timmerman

Weather History for KMWC - January, 2014

Change the Weather History Date:

Thursday, January 30, 2014

  Actual Average Record
Temperature  
Mean Temperature 24 °F -  
Max Temperature 30 °F 29 °F 52 °F (1988)
Min Temperature 19 °F 14 °F -27 °F (1951)
Degree Days  
Heating Degree Days 40    
Moisture  
Dew Point 13 °F    
Average Humidity 61    
Maximum Humidity 86    
Minimum Humidity 46    
Precipitation  
Precipitation 0.00 in - - ()
Sea Level Pressure  
Sea Level Pressure 29.76 in    
Wind  
Wind Speed 17 mph (SW)    
Max Wind Speed 22 mph    
Max Gust Speed 31 mph    
Visibility 9 miles    
Events Snow    
Averages and records for this station are not official NWS values.
T = Trace of Precipitation, MM = Missing Value Source: NWS Daily Summary

Daily Weather History Graph

Daily Weather History Graph

Search for Another Location

Airport or City:

Trip Planner

Search our weather history database for the weather conditions in past years. The results will help you decide how hot, cold, wet, or windy it might be!

Date:

Astronomy

Jan. 30, 2014 Rise Set
Actual Time 7:09 AM CST 5:01 PM CST
Civil Twilight 6:39 AM CST 5:32 PM CST
Nautical Twilight 6:04 AM CST 6:06 PM CST
Astronomical Twilight 5:31 AM CST 6:39 PM CST
Moon 6:34 AM CST (1/30) 5:15 PM CST (1/30)
Length of Visible Light 10h 53m
Length of Day
9h 52m
Waning Crescent, 0% of the Moon is Illuminated
Jan 30
Waning Crescent
Jan 30
New
Feb 6
First Quarter
Feb 14
Full
Feb 22
Last Quarter

Hourly Weather History & Observations

Time (CST) Temp. Windchill Dew Point Humidity Pressure Visibility Wind Dir Wind Speed Gust Speed Precip Events Conditions
12:15 AM 23.0 °F 8.3 °F 5.0 °F 46% 29.88 in 10.0 mi SSW 19.6 mph 26.5 mph N/A   Clear
12:35 AM 23.0 °F 9.2 °F 5.0 °F 46% 29.86 in 10.0 mi SSW 17.3 mph 27.6 mph N/A   Clear
12:55 AM 23.0 °F 8.3 °F 5.0 °F 46% 29.85 in 10.0 mi SSW 19.6 mph 26.5 mph N/A   Clear
1:15 AM 23.0 °F 9.2 °F 5.0 °F 46% 29.84 in 10.0 mi SSW 17.3 mph 24.2 mph N/A   Clear
1:40 AM 23.0 °F 8.7 °F 5.0 °F 46% 29.83 in 10.0 mi SSW 18.4 mph 23.0 mph N/A   Clear
1:55 AM 23.0 °F 9.2 °F 5.0 °F 46% 29.82 in 10.0 mi SSW 17.3 mph 24.2 mph N/A   Clear
2:15 AM 23.0 °F 7.6 °F 5.0 °F 46% 29.82 in 10.0 mi SSW 21.9 mph 26.5 mph N/A   Clear
2:35 AM 23.0 °F 9.6 °F 6.8 °F 50% 29.81 in 10.0 mi SSW 16.1 mph 28.8 mph N/A   Clear
2:55 AM 23.0 °F 8.7 °F 6.8 °F 50% 29.81 in 10.0 mi SSW 18.4 mph 27.6 mph N/A   Clear
3:15 AM 23.0 °F 8.7 °F 6.8 °F 50% 29.80 in 10.0 mi SSW 18.4 mph 26.5 mph N/A   Clear
3:35 AM 23.0 °F 7.6 °F 8.6 °F 54% 29.79 in 10.0 mi SSW 21.9 mph 27.6 mph N/A   Clear
3:55 AM 23.0 °F 8.7 °F 8.6 °F 54% 29.79 in 10.0 mi SSW 18.4 mph 25.3 mph N/A   Clear
4:15 AM 23.0 °F 10.1 °F 8.6 °F 54% 29.78 in 10.0 mi SSW 15.0 mph 28.8 mph N/A   Clear
4:35 AM 23.0 °F 9.6 °F 8.6 °F 54% 29.77 in 10.0 mi SSW 16.1 mph 25.3 mph N/A   Clear
4:55 AM 24.8 °F 11.1 °F 8.6 °F 50% 29.77 in 10.0 mi SSW 18.4 mph 25.3 mph N/A   Clear
5:15 AM 24.8 °F 11.1 °F 8.6 °F 50% 29.76 in 10.0 mi SSW 18.4 mph 26.5 mph N/A   Clear
5:35 AM 26.6 °F 13.4 °F 8.6 °F 47% 29.76 in 10.0 mi SSW 18.4 mph 26.5 mph N/A   Clear
5:55 AM 26.6 °F 14.3 °F 10.4 °F 51% 29.76 in 10.0 mi SSW 16.1 mph 23.0 mph N/A   Mostly Cloudy
6:15 AM 26.6 °F 13.1 °F 10.4 °F 51% 29.75 in 10.0 mi SSW 19.6 mph 26.5 mph N/A   Overcast
6:35 AM 26.6 °F 14.3 °F 10.4 °F 51% 29.75 in 10.0 mi SSW 16.1 mph 23.0 mph N/A   Overcast
6:45 AM 24.8 °F 11.9 °F 8.6 °F 50% 29.75 in 10.0 mi SSW 16.1 mph 21.9 mph N/A   Overcast
7:44 AM 26.6 °F 15.2 °F 8.6 °F 47% 29.73 in 10.0 mi SSW 13.8 mph 24.2 mph N/A   Mostly Cloudy
7:45 AM 26.6 °F 15.2 °F 8.6 °F 47% 29.73 in 10.0 mi SSW 13.8 mph 24.2 mph N/A   Mostly Cloudy
8:45 AM 24.8 °F 12.4 °F 10.4 °F 54% 29.72 in 10.0 mi SSW 15.0 mph 21.9 mph N/A   Overcast
9:45 AM 24.8 °F 11.9 °F 10.4 °F 54% 29.69 in 10.0 mi South 16.1 mph 27.6 mph N/A   Overcast
10:45 AM 26.6 °F 15.2 °F 10.4 °F 51% 29.66 in 10.0 mi South 13.8 mph 27.6 mph N/A   Overcast
11:45 AM 26.6 °F 15.2 °F 10.4 °F 51% 29.63 in 10.0 mi South 13.8 mph 23.0 mph N/A   Mostly Cloudy
12:45 PM 26.6 °F 14.3 °F 17.6 °F 69% 29.60 in 1.0 mi SSW 16.1 mph 31.1 mph N/A Snow Light Snow
1:45 PM 24.8 °F 12.9 °F 19.4 °F 80% 29.58 in 0.5 mi SSW 13.8 mph 20.7 mph N/A Snow Light Snow
2:00 PM 24.8 °F 12.4 °F 19.4 °F 80% 29.58 in 4.0 mi SSW 15.0 mph 24.2 mph N/A Snow Light Snow
2:45 PM 26.6 °F 13.4 °F 19.4 °F 74% 29.59 in 3.0 mi SW 18.4 mph 29.9 mph N/A Snow Light Snow
3:45 PM 26.6 °F 13.1 °F 21.2 °F 80% 29.61 in 7.0 mi SW 19.6 mph 25.3 mph N/A   Overcast
4:45 PM 28.4 °F 18.5 °F 21.2 °F 74% 29.64 in 10.0 mi WSW 11.5 mph 17.3 mph N/A   Overcast
5:45 PM 28.4 °F 17.5 °F 24.8 °F 86% 29.67 in 7.0 mi SW 13.8 mph 17.3 mph N/A   Overcast
8:15 PM 30.2 °F 20.8 °F 26.6 °F 86% 29.74 in 10.0 mi West 11.5 mph 16.1 mph N/A   Overcast
8:35 PM 30.2 °F 23.4 °F 26.6 °F 86% 29.75 in 10.0 mi West 6.9 mph - N/A   Overcast
9:00 PM 30.2 °F 22.6 °F 24.8 °F 80% 29.76 in 10.0 mi West 8.1 mph - N/A   Overcast
9:15 PM 30.2 °F 24.3 °F 24.8 °F 80% 29.78 in 10.0 mi West 5.8 mph - N/A   Overcast
9:35 PM 30.2 °F 21.3 °F 24.8 °F 80% 29.78 in 10.0 mi WNW 10.4 mph - N/A   Overcast
9:55 PM 28.4 °F 15.8 °F 21.2 °F 74% 29.81 in 10.0 mi NW 18.4 mph 25.3 mph N/A   Overcast
10:15 PM 26.6 °F 12.7 °F 17.6 °F 69% 29.83 in 7.0 mi WNW 20.7 mph 26.5 mph N/A   Overcast
10:35 PM 23.0 °F 10.1 °F 14.0 °F 68% 29.85 in 10.0 mi WNW 15.0 mph 24.2 mph N/A   Mostly Cloudy
10:55 PM 21.2 °F 8.3 °F 12.2 °F 68% 29.86 in 10.0 mi WNW 13.8 mph 21.9 mph N/A   Clear
11:15 PM 21.2 °F 8.9 °F 12.2 °F 68% 29.88 in 10.0 mi WNW 12.7 mph 17.3 mph N/A   Clear
11:35 PM 19.4 °F 9.5 °F 12.2 °F 74% 29.88 in 10.0 mi WNW 8.1 mph - N/A   Clear
11:55 PM 19.4 °F 7.9 °F 12.2 °F 74% 29.89 in 10.0 mi WNW 10.4 mph - N/A   Clear